Location: East Guldeford
(50.9500°N, 0.7500°E)
Time: 07:44:37
(UTC+00:00)

BREEZE-M DEB (TANK) - Pass Details

Date: 12 May 2021
Orbit: 320 x 13078 km, 49.7° (Epoch: 17 June)

Event Time Altitude Azimuth Distance (km) Brightness Sun altitude
Rises 23:22:16 0° 290° (WNW) 9,498 9.5 -20.3°
Reaches altitude 10° 23:31:24 10° 288° (WNW) 6,373 8.5 -20.5°
Maximum altitude 23:44:46 50° 219° (SW) 1,394 4.5 -20.6°
Enters shadow 23:46:18 39° 175° (S) 1,337 4.2 -20.6°
